Location: Bratislava
(48.1500°N, 17.1170°E)
Time: 08:59:49
(UTC+02:00)

ISS - Visible Passes

Search period start: 21 May 2018 00:00
Search period end: 31 May 2018 00:00
Orbit: 402 x 407 km, 51.6° (Epoch: 21 May)

Date Brightness Start Highest point End Pass type
(mag) Time Alt. Az. Time Alt. Az. Time Alt. Az.
21 May -2.7 00:46:32 10° W 00:49:41 44° N 00:52:51 10° ENE visible
21 May -3.2 02:23:15 10° WNW 02:26:30 58° NNE 02:29:44 10° E visible
21 May -3.3 03:59:52 10° WNW 04:02:55 37° SSW 04:05:58 10° SE visible
21 May -3.7 22:17:44 10° SW 22:20:54 50° SSE 22:24:05 10° ENE visible
21 May -3.0 23:54:13 10° W 23:57:25 51° NNW 00:00:38 10° ENE visible
22 May -2.8 01:31:03 10° WNW 01:34:14 47° N 01:37:26 10° E visible
22 May -3.9 03:07:35 10° WNW 03:10:50 61° SSW 03:14:02 10° SE visible
22 May -3.1 21:25:53 10° SSW 21:28:49 31° SE 21:31:45 10° E visible
22 May -3.4 23:01:54 10° W 23:05:10 64° NNW 23:08:26 10° ENE visible
23 May -2.6 00:38:48 10° WNW 00:41:57 43° N 00:45:06 10° ENE visible
23 May -3.9 02:15:22 10° WNW 02:18:39 89° NNE 02:21:55 10° ESE visible
23 May -2.4 03:52:23 10° W 03:54:48 19° SW 03:57:13 10° S visible
23 May -3.9 22:09:39 10° WSW 22:12:56 89° N 22:16:13 10° ENE visible
23 May -2.6 23:46:29 10° WNW 23:49:38 43° N 23:52:47 10° ENE visible
24 May -3.5 01:23:09 10° WNW 01:26:25 64° NNE 01:27:54 29° E visible
24 May -1.5 02:59:49 10° W 03:07:32 - SE 03:00:17 13° W visible
24 May -3.8 21:17:31 10° SW 21:20:44 60° SSE 21:23:58 10° ENE visible
24 May -2.8 22:54:08 10° W 22:57:19 48° N 23:00:30 10° ENE visible
25 May -3.0 00:30:56 10° WNW 00:34:08 50° N 00:35:40 26° ENE visible
25 May -1.6 02:07:28 10° WNW 02:08:15 16° WNW 02:08:15 16° WNW visible
25 May -3.2 22:01:46 10° W 22:05:00 58° NNW 22:08:15 10° ENE visible
25 May -2.7 23:38:39 10° WNW 23:41:49 44° N 23:44:34 13° ENE visible
26 May -2.6 01:15:12 10° WNW 01:17:09 33° WNW 01:17:09 33° WNW visible
26 May -2.6 22:46:19 10° WNW 22:49:27 43° N 22:52:37 10° ENE visible
27 May -3.7 00:22:57 10° WNW 00:26:13 71° NNE 00:26:18 71° NE visible
27 May -2.7 21:53:56 10° W 21:57:06 45° N 22:00:16 10° ENE visible
27 May -3.2 23:30:41 10° WNW 23:33:55 54° NNE 23:35:33 25° E visible
28 May -1.6 01:07:15 10° WNW 01:08:10 17° W 01:08:10 17° W visible
28 May -2.8 22:38:23 10° WNW 22:41:34 46° N 22:44:44 10° E visible
29 May -3.3 00:14:55 10° WNW 00:17:28 49° W 00:17:28 49° W visible
29 May -2.6 21:46:01 10° WNW 21:49:10 43° N 21:52:19 10° ENE visible
29 May -3.8 23:22:37 10° WNW 23:25:55 80° NNE 23:26:49 44° ESE visible
30 May -3.3 22:30:19 10° WNW 22:33:34 59° NNE 22:36:10 15° E visible
